Weather History for Cedar City, UT

Change the Weather History Date:

Wednesday, August 28, 2013

  Actual Average Record
Temperature  
Mean Temperature 69 °F 69 °F  
Max Temperature 84 °F 85 °F 95 °F (2009)
Min Temperature 53 °F 52 °F 37 °F (1973)
Degree Days  
Heating Degree Days 0 1  
Month to date heating degree days 3 1  
Since 1 June heating degree days 14 80  
Since 1 July heating degree days 3 4  
Cooling Degree Days 4 4  
Month to date cooling degree days 160 183  
Year to date cooling degree days 614 536  
Since 1 June cooling degree days 612 528  
Growing Degree Days 19 (Base 50)    
Moisture  
Dew Point 53 °F    
Average Humidity 61    
Maximum Humidity 93    
Minimum Humidity 29    
Precipitation  
Precipitation 0.00 in 0.03 in 0.53 in (2011)
Month to date precipitation 1.85 1.04  
Year to date precipitation 11.17 7.45  
Sea Level Pressure  
Sea Level Pressure 29.98 in    
Wind  
Wind Speed 4 mph (SSW)    
Max Wind Speed 17 mph    
Max Gust Speed 24 mph    
Visibility 10 miles    
Events      
T = Trace of Precipitation, MM = Missing Value Source: NWS Daily Summary

Daily Weather History Graph

Daily Weather History Graph

Search for Another Location

Airport:

Trip Planner

Search our weather history database for the weather conditions in past years. The results will help you decide how hot, cold, wet, or windy it might be!

Date:

Astronomy

Aug. 28, 2013 Rise Set
Actual Time 6:59 AM MDT 8:06 PM MDT
Civil Twilight 6:32 AM MDT 8:33 PM MDT
Nautical Twilight 6:00 AM MDT 9:06 PM MDT
Astronomical Twilight 5:26 AM MDT 9:39 PM MDT
Moon 12:12 AM MDT 2:44 PM MDT
Length of Visible Light 14h 01m
Length of Day
13h 07m
Waning Gibbous, 47% of the Moon is Illuminated
Aug 28
Waning Gibbous
Sep 5
New
Sep 12
First Quarter
Sep 19
Full
Sep 26
Last Quarter

Hourly Weather History & Observations

Time (MDT) Temp. Heat Index Dew Point Humidity Pressure Visibility Wind Dir Wind Speed Gust Speed Precip Events Conditions
12:53 AM 57.9 °F - 52.0 °F 81% 29.98 in 10.0 mi Calm Calm - N/A   Clear
1:53 AM 57.9 °F - 53.1 °F 84% 29.97 in 10.0 mi SE 4.6 mph - N/A   Clear
2:53 AM 59.0 °F - 52.0 °F 78% 29.96 in 10.0 mi East 3.5 mph - N/A   Clear
3:53 AM 55.9 °F - 52.0 °F 87% 29.98 in 10.0 mi Calm Calm - N/A   Clear
4:53 AM 55.0 °F - 52.0 °F 89% 29.97 in 10.0 mi Calm Calm - N/A   Mostly Cloudy
5:53 AM 54.0 °F - 52.0 °F 93% 29.98 in 10.0 mi Calm Calm - N/A   Partly Cloudy
6:53 AM 55.0 °F - 52.0 °F 89% 29.99 in 10.0 mi Calm Calm - N/A   Overcast
7:53 AM 55.9 °F - 53.1 °F 90% 30.01 in 10.0 mi Calm Calm - N/A   Clear
8:53 AM 64.0 °F - 54.0 °F 70% 30.01 in 10.0 mi Calm Calm - N/A   Clear
9:53 AM 70.0 °F - 55.0 °F 59% 30.01 in 10.0 mi NE 3.5 mph - N/A   Clear
10:53 AM 75.0 °F - 54.0 °F 48% 30.00 in 10.0 mi Calm Calm - N/A   Clear
11:53 AM 77.0 °F - 55.9 °F 48% 30.00 in 10.0 mi Calm Calm - N/A   Clear
12:53 PM 81.0 °F 80.7 °F 55.0 °F 41% 29.98 in 10.0 mi SW 13.8 mph 19.6 mph N/A   Clear
1:53 PM 82.9 °F - 52.0 °F 34% 29.96 in 10.0 mi SW 17.3 mph 24.2 mph N/A   Partly Cloudy
2:53 PM 82.9 °F - 48.9 °F 31% 29.94 in 10.0 mi WSW 10.4 mph 21.9 mph N/A   Clear
3:53 PM 84.0 °F - 50.0 °F 31% 29.94 in 10.0 mi WSW 9.2 mph - N/A   Clear
4:53 PM 79.0 °F - 52.0 °F 39% 29.94 in 10.0 mi SW 12.7 mph - N/A   Clear
5:53 PM 78.1 °F - 53.1 °F 42% 29.95 in 10.0 mi SW 9.2 mph - N/A   Clear
6:53 PM 79.0 °F - 53.1 °F 40% 29.95 in 10.0 mi SW 11.5 mph - N/A   Clear
7:53 PM 75.0 °F - 53.1 °F 46% 29.96 in 10.0 mi SW 9.2 mph - N/A   Mostly Cloudy
8:53 PM 73.0 °F - 54.0 °F 51% 29.97 in 10.0 mi SE 5.8 mph - N/A   Clear
9:53 PM 69.1 °F - 55.0 °F 61% 29.99 in 10.0 mi West 5.8 mph - N/A   Clear
10:53 PM 64.0 °F - 55.0 °F 73% 30.00 in 10.0 mi Calm Calm - N/A   Clear
11:53 PM 64.9 °F - 55.9 °F 73% 30.00 in 10.0 mi SE 3.5 mph - N/A   Clear